Wind_Speed
13 14 15 17 16 15 15 18 20 14 12 14 15 14 13 14 14 15 15 13 14 20 21 19 18 19 19 18 16 14 12 10 10 10 10 11 11 11 10 10 11 12 12 12 11 9 7 6 4
12 13 16 17 15 18 16 17 24 19 13 12 13 13 13 14 15 14 12 10 12 16 17 15 15 16 17 17 16 14 12 11 10 9 9 10 10 10 10 12 12 12 12 12 11 10 9 8 6
13 12 16 17 13 13 12 9 17 18 18 15 13 12 11 13 14 13 10 8 9 11 12 12 12 13 14 15 15 15 14 12 11 9 8 8 9 10 10 12 13 12 11 11 11 9 9 8 8
15 14 16 17 14 13 13 8 9 17 19 19 16 8 9 11 11 10 9 8 7 7 8 9 10 10 10 11 13 13 14 13 12 11 10 8 8 8 10 12 13 13 11 9 9 9 9 7 6
17 17 19 18 16 13 11 9 11 15 21 18 13 8 10 10 9 8 7 7 6 5 4 5 8 8 9 8 9 10 12 12 12 12 11 9 8 9 10 12 12 12 11 8 8 8 8 8 7
20 18 19 18 19 16 14 8 11 8 15 17 13 13 14 11 8 6 7 7 7 7 6 3 1 4 5 6 7 8 9 10 10 10 11 11 9 8 9 11 12 12 11 8 7 8 9 9 9
23 21 21 16 14 16 14 13 13 17 19 15 17 15 14 12 10 9 7 7 8 9 9 7 5 3 2 3 4 5 5 6 7 8 8 8 8 8 9 10 11 12 13 10 7 8 9 9 9
26 23 23 17 15 15 13 14 14 22 22 24 15 14 12 9 6 9 9 7 7 8 10 10 10 9 9 8 6 6 5 5 6 6 7 7 5 5 7 9 10 10 10 10 8 7 7 7 7
29 24 26 25 23 25 15 15 22 24 18 15 16 19 13 11 8 10 10 7 7 9 10 11 14 16 15 14 13 11 10 9 9 10 9 9 7 6 6 8 10 11 10 8 6 7 6 6 7
31 26 30 32 30 32 28 25 28 27 24 20 19 20 16 16 13 19 20 13 8 9 11 11 13 17 17 16 16 15 14 13 12 12 14 14 13 11 10 9 9 10 10 8 7 7 8 7 8
32 28 32 38 37 38 37 35 35 31 30 26 21 18 24 23 21 25 30 19 12 11 13 13 15 17 17 15 15 16 16 15 14 14 14 16 16 15 14 12 11 11 10 9 9 9 9 10 8
32 31 36 43 43 43 44 42 41 37 35 33 26 22 21 24 23 22 26 26 18 16 18 18 19 20 15 12 11 12 11 11 10 12 16 19 19 18 17 16 16 14 12 12 11 11 12 11 10
34 32 35 41 45 46 46 46 44 40 39 40 32 26 26 25 27 19 16 18 24 24 22 20 21 20 13 11 10 10 9 10 11 14 16 17 17 16 18 18 18 18 16 16 15 14 14 13 13
37 36 37 40 44 46 47 46 44 43 41 41 38 33 28 24 21 13 19 24 31 31 25 23 22 19 15 13 12 11 13 15 16 17 17 17 16 15 16 17 18 18 18 18 19 20 19 18 17
35 34 34 37 41 44 44 44 42 38 40 41 38 33 28 26 26 23 27 33 32 30 26 28 29 22 18 18 16 15 15 15 17 17 18 18 18 17 16 16 16 17 18 20 22 24 23 24 22
33 32 29 30 34 39 43 44 42 39 40 42 40 37 34 31 27 24 25 29 31 32 31 29 33 30 24 24 23 22 21 19 17 16 18 18 19 20 21 19 18 19 20 21 22 24 24 25 27
28 29 32 32 33 36 41 39 39 37 38 41 41 38 37 36 31 25 23 22 27 33 34 29 31 29 25 26 25 23 23 22 19 18 18 18 18 21 22 22 21 22 22 20 20 20 22 24 26
28 31 32 33 36 39 39 37 39 36 36 37 40 39 35 32 29 25 27 25 24 20 21 27 30 27 26 25 25 26 27 26 24 24 23 22 21 21 22 22 22 23 25 25 23 22 22 24 25
32 33 32 32 33 36 37 34 39 42 42 41 42 41 37 30 26 21 23 24 21 18 21 29 28 29 33 30 29 33 32 30 27 26 25 23 23 24 25 26 27 28 28 27 26 24 23 25 26
32 33 32 32 33 34 35 34 34 41 42 44 44 43 40 35 31 29 32 31 27 26 31 32 27 31 44 39 36 39 35 32 27 24 24 23 25 27 29 29 28 27 27 26 23 23 23 24 26
36 35 33 33 32 33 33 34 35 38 42 44 44 44 43 42 40 36 37 41 37 36 42 41 34 44 51 47 42 42 36 28 25 26 27 26 27 30 30 28 28 27 25 24 21 21 22 25 25
36 36 35 34 34 35 36 37 37 38 40 42 42 42 42 42 42 45 46 47 47 47 46 44 41 43 47 42 38 35 31 24 27 30 29 28 28 30 30 28 28 29 27 25 24 22 22 23 24
32 33 33 32 34 36 38 39 38 39 41 42 41 42 44 44 42 43 42 42 46 48 45 41 43 48 51 48 38 37 35 31 30 31 30 29 29 30 31 30 30 32 29 28 26 23 21 21 23
26 28 25 24 29 34 34 38 39 38 38 38 40 43 41 35 36 35 34 33 35 35 39 39 47 47 50 52 44 39 38 35 32 32 32 32 33 35 34 34 34 35 32 30 26 22 22 21 21
28 27 24 22 25 28 27 34 38 36 31 30 33 35 34 34 32 30 33 34 38 39 41 43 44 34 32 31 30 33 34 35 35 35 36 36 37 38 38 37 36 37 37 35 28 22 23 22 21
28 27 27 26 27 26 27 30 32 32 28 26 27 28 32 37 42 41 39 36 38 37 25 25 25 28 29 32 32 34 36 39 39 39 39 39 39 39 39 38 37 37 39 39 35 27 25 24 23
23 23 23 26 27 26 28 29 27 28 24 24 27 28 29 37 40 42 39 38 40 42 38 33 25 21 22 29 33 35 37 39 39 39 39 39 39 38 36 36 36 36 38 37 32 27 26 24 25
20 20 22 24 26 25 26 27 28 28 25 26 31 31 25 27 35 41 40 30 22 25 26 28 21 20 23 27 29 30 31 33 34 35 35 34 34 34 32 33 35 35 35 34 31 27 26 26 26
20 20 23 23 23 24 25 27 26 26 27 26 32 35 29 32 41 41 35 34 20 17 19 24 27 30 29 29 30 31 30 31 31 31 32 33 34 34 33 33 34 32 31 31 31 31 28 27 27
26 24 24 25 24 19 23 25 23 21 27 28 30 27 28 26 26 19 13 17 21 23 23 26 28 30 30 30 30 33 33 33 32 31 32 33 33 33 31 32 31 30 29 28 29 29 28 28 27
Wind_Direction
176 183 181 174 177 164 165 184 198 188 171 149 138 138 139 139 129 112 103 96 99 94 85 77 71 70 69 69 70 69 70 69 67 67 67 65 56 50 46 45 44 39 41 45 47 51 58 64 75
176 185 183 176 174 153 162 181 196 180 179 163 160 153 147 144 138 123 114 112 103 95 90 82 73 67 66 65 66 66 66 70 70 65 68 66 58 47 39 38 36 34 34 42 49 55 57 56 51
181 185 182 178 170 164 178 172 162 159 170 165 170 161 156 152 143 140 134 137 117 101 94 88 78 70 67 66 63 60 54 51 49 42 39 41 42 41 35 30 28 28 31 39 46 53 57 55 56
191 183 178 175 167 177 172 144 180 193 178 167 161 171 177 171 154 151 158 165 149 124 107 98 89 79 73 68 64 61 59 51 44 34 23 15 15 17 24 25 23 21 24 32 42 49 48 49 57
199 189 178 176 187 198 186 196 221 207 197 168 147 183 185 193 179 164 179 196 192 184 147 108 91 81 77 75 65 60 59 57 47 39 32 19 3 359 6 15 17 19 22 28 31 39 37 31 34
205 194 184 190 209 208 208 224 269 244 210 166 160 174 174 188 179 170 196 211 224 237 240 217 135 68 54 56 52 51 56 56 50 38 37 33 29 13 2 6 10 10 17 24 30 26 24 20 14
210 196 186 199 224 223 219 239 265 276 264 202 174 173 172 179 178 180 191 204 226 243 258 261 263 284 315 359 12 16 31 35 37 34 33 28 29 29 19 11 9 6 6 6 17 24 19 17 9
219 203 187 180 212 230 237 248 256 258 246 206 193 186 173 174 185 212 206 209 226 243 258 270 277 281 287 297 304 301 313 327 335 350 2 2 3 10 13 2 357 353 356 357 2 18 15 11 2
222 209 190 194 216 231 234 252 253 253 253 244 245 199 199 211 214 242 241 229 239 252 259 272 285 291 293 295 294 288 285 292 305 313 322 327 328 329 333 335 334 337 342 350 6 2 357 357 349
222 210 193 206 221 237 244 249 256 257 256 254 241 234 213 236 272 259 254 251 251 266 272 274 282 284 286 289 289 286 278 277 290 304 309 310 308 306 303 306 308 323 330 335 348 344 331 334 338
223 207 198 208 223 231 240 249 257 260 262 263 261 254 251 260 272 278 256 255 270 282 288 295 292 286 284 283 282 281 277 275 278 291 298 300 297 293 295 296 306 311 311 319 323 319 313 318 323
225 210 206 210 222 229 238 246 254 259 262 265 264 245 253 258 267 275 262 251 272 296 304 304 297 295 297 288 275 274 276 278 286 292 295 297 297 297 299 301 301 298 295 297 303 305 305 306 304
227 218 215 217 225 232 241 248 251 254 262 267 268 269 262 274 289 279 218 230 256 272 285 297 295 287 280 284 288 281 269 269 288 293 294 294 293 296 296 295 295 297 293 289 292 295 297 297 293
229 224 222 222 231 239 245 250 255 260 267 271 275 275 271 269 274 238 242 252 261 263 268 274 274 270 269 274 283 288 282 284 290 289 287 286 285 284 283 289 295 295 294 292 292 297 296 293 290
233 232 229 229 233 242 250 251 255 262 267 270 272 274 272 265 267 258 257 263 261 258 267 279 285 280 272 269 271 278 285 286 289 291 288 284 281 278 277 282 284 285 289 294 298 300 300 296 291
234 236 233 231 236 240 249 255 257 257 261 267 269 272 270 272 275 274 267 255 254 259 266 274 282 278 274 272 271 280 290 295 297 292 288 289 287 281 275 274 283 288 294 300 300 299 301 300 296
236 237 234 229 229 231 240 249 257 259 259 264 268 270 273 277 281 277 265 262 257 259 254 250 267 275 278 277 276 279 286 295 299 293 289 290 288 283 279 280 288 293 296 298 297 297 304 301 297
234 236 238 237 237 238 240 244 247 250 256 263 267 269 272 278 281 274 269 269 265 251 229 240 260 275 279 279 281 281 281 286 287 285 284 286 286 283 284 287 290 292 292 295 297 300 302 300 299
237 242 245 247 247 248 252 256 256 253 255 259 264 267 273 281 276 271 265 268 270 253 235 246 263 281 278 271 278 282 281 279 276 275 278 280 277 277 281 283 285 290 290 292 295 297 298 297 296
246 251 253 255 256 256 255 253 255 263 264 266 270 273 275 274 275 273 263 262 265 255 247 252 261 270 268 258 266 273 274 273 273 273 271 268 269 273 278 281 279 281 284 286 289 293 292 291 293
248 251 255 258 261 263 261 256 249 256 263 265 267 268 270 269 269 271 265 262 261 259 263 261 260 279 269 263 266 265 261 265 274 273 268 264 266 270 276 279 279 278 279 280 282 285 288 288 290
252 252 250 250 252 252 253 253 252 251 259 266 268 268 269 269 269 269 266 262 259 256 258 257 262 266 258 247 252 263 265 271 272 268 266 265 269 274 278 277 273 272 276 280 284 287 282 281 284
249 251 250 245 243 247 249 253 253 255 258 267 275 274 273 274 271 269 267 266 261 258 254 250 254 253 254 255 262 259 268 274 268 262 259 262 267 272 274 273 271 272 277 282 282 278 277 280 281
245 250 253 246 242 244 246 253 259 257 256 261 268 270 269 266 264 264 265 263 259 253 242 238 242 237 239 247 243 249 262 266 264 261 263 267 272 276 275 274 273 273 276 278 281 275 275 276 279
243 245 252 250 249 253 251 253 259 264 266 263 262 260 253 249 249 248 252 257 253 239 227 220 228 232 236 240 239 251 259 259 258 260 265 270 273 274 274 273 273 273 274 278 280 271 268 271 278
246 244 247 251 253 252 249 252 256 264 267 263 257 250 249 245 247 250 255 258 254 256 249 229 247 259 263 258 252 257 262 263 264 266 268 269 269 269 270 271 271 272 273 275 276 268 260 266 275
245 245 244 249 250 251 249 250 252 255 258 256 257 262 264 263 259 248 246 261 270 283 291 285 300 304 274 264 262 264 265 266 265 265 266 266 267 268 270 272 273 273 272 272 271 262 255 259 269
249 243 238 245 253 252 247 248 254 255 254 259 261 265 280 279 275 271 272 275 281 280 279 272 268 267 271 268 264 264 265 266 267 267 267 268 269 271 273 275 274 274 273 270 263 256 254 254 260
266 266 249 247 256 254 251 246 246 250 251 252 256 263 284 281 281 282 278 271 277 275 268 261 257 261 262 264 266 268 269 269 269 269 271 273 273 271 274 274 275 273 272 267 260 253 254 252 253
255 259 254 248 245 249 249 242 239 245 251 258 262 268 267 263 258 252 262 285 285 282 275 269 265 265 264 262 265 268 267 268 270 272 274 277 275 270 270 272 273 269 267 268 263 257 256 257 258
Height
5908 5910 5912 5912 5915 5919 5920 5921 5919 5919 5919 5918 5918 5920 5923 5925 5927 5928 5925 5924 5923 5919 5919 5920 5921 5920 5919 5919 5919 5919 5919 5918 5918 5917 5917 5917 5916 5914 5913 5911 5911 5910 5909 5908 5907 5906 5906 5906 5906
5909 5910 5912 5912 5914 5918 5919 5920 5920 5921 5921 5920 5919 5920 5923 5924 5926 5926 5926 5927 5925 5922 5922 5923 5924 5923 5923 5922 5921 5921 5920 5920 5919 5918 5917 5917 5917 5916 5914 5912 5912 5911 5909 5909 5908 5907 5907 5907 5907
5909 5910 5912 5912 5914 5916 5919 5920 5919 5920 5919 5919 5921 5923 5924 5924 5924 5925 5926 5928 5926 5924 5924 5924 5925 5925 5925 5925 5924 5922 5922 5922 5921 5920 5919 5918 5917 5916 5915 5914 5912 5911 5909 5909 5908 5908 5907 5907 5906
5908 5910 5912 5912 5914 5915 5919 5917 5914 5913 5915 5916 5919 5923 5924 5924 5924 5925 5927 5928 5927 5925 5925 5925 5925 5925 5925 5926 5926 5925 5923 5923 5922 5921 5920 5919 5918 5917 5916 5916 5914 5913 5911 5909 5908 5907 5907 5906 5905
5908 5910 5911 5911 5912 5913 5915 5911 5910 5915 5916 5913 5917 5922 5923 5922 5924 5924 5927 5928 5928 5928 5926 5926 5926 5926 5925 5925 5925 5926 5925 5924 5924 5922 5921 5920 5919 5919 5918 5916 5915 5914 5912 5910 5908 5906 5905 5905 5905
5907 5910 5911 5909 5908 5912 5912 5910 5909 5914 5916 5913 5918 5924 5923 5922 5924 5924 5926 5928 5928 5928 5927 5927 5927 5926 5926 5926 5926 5925 5925 5925 5924 5923 5922 5921 5919 5919 5918 5917 5915 5914 5912 5911 5908 5907 5906 5905 5905
5905 5908 5909 5909 5906 5909 5910 5908 5908 5911 5914 5919 5920 5922 5923 5922 5921 5923 5924 5926 5927 5928 5928 5927 5927 5926 5926 5926 5926 5926 5925 5925 5924 5923 5922 5921 5919 5918 5918 5917 5915 5914 5913 5911 5909 5907 5905 5905 5904
5901 5906 5908 5907 5903 5903 5907 5904 5905 5910 5914 5920 5920 5920 5921 5922 5921 5922 5922 5922 5924 5926 5928 5928 5927 5927 5926 5926 5925 5925 5924 5924 5924 5923 5921 5920 5919 5918 5918 5916 5914 5913 5911 5910 5908 5907 5905 5904 5903
5897 5905 5906 5903 5899 5899 5902 5902 5900 5905 5908 5913 5917 5920 5921 5921 5923 5924 5924 5923 5924 5926 5927 5927 5928 5928 5927 5926 5925 5924 5923 5921 5921 5922 5921 5919 5918 5918 5916 5915 5914 5912 5911 5909 5907 5906 5905 5903 5902
5894 5902 5904 5900 5899 5897 5896 5896 5894 5899 5903 5907 5910 5916 5918 5923 5925 5924 5923 5923 5922 5925 5926 5924 5924 5926 5926 5924 5923 5923 5922 5921 5919 5920 5919 5918 5917 5916 5915 5914 5912 5911 5910 5908 5906 5904 5903 5902 5900
5890 5897 5898 5895 5894 5895 5894 5891 5891 5893 5897 5900 5905 5912 5915 5920 5922 5921 5921 5922 5921 5923 5924 5922 5922 5923 5923 5922 5921 5921 5920 5920 5917 5917 5916 5916 5914 5914 5913 5912 5911 5910 5908 5906 5905 5903 5902 5900 5898
5885 5891 5890 5889 5889 5891 5892 5892 5890 5890 5892 5896 5904 5912 5915 5915 5914 5914 5919 5924 5923 5921 5921 5921 5920 5920 5920 5919 5918 5918 5918 5918 5915 5914 5914 5912 5912 5911 5910 5910 5909 5908 5906 5905 5903 5901 5900 5898 5897
5879 5884 5886 5885 5885 5885 5888 5889 5889 5890 5892 5893 5899 5906 5910 5910 5909 5907 5912 5921 5923 5919 5917 5919 5918 5917 5916 5915 5914 5915 5915 5915 5912 5911 5910 5910 5909 5908 5908 5907 5906 5905 5904 5902 5901 5899 5898 5897 5895
5871 5876 5879 5881 5880 5880 5885 5886 5886 5887 5889 5891 5893 5897 5901 5904 5904 5907 5914 5915 5914 5913 5912 5914 5914 5915 5914 5914 5913 5913 5912 5910 5909 5909 5908 5907 5906 5905 5905 5904 5903 5902 5900 5899 5898 5897 5896 5894 5892
5865 5871 5875 5877 5877 5875 5878 5883 5884 5885 5884 5884 5886 5889 5894 5898 5902 5906 5908 5908 5907 5905 5906 5910 5911 5911 5909 5910 5911 5911 5910 5908 5907 5907 5907 5905 5903 5901 5901 5901 5900 5899 5897 5896 5895 5893 5891 5889 5887
5860 5865 5870 5872 5873 5874 5873 5874 5877 5878 5877 5877 5880 5883 5885 5890 5895 5898 5900 5900 5901 5901 5902 5906 5907 5907 5906 5906 5905 5905 5905 5904 5903 5902 5902 5902 5901 5898 5897 5897 5896 5895 5893 5893 5892 5890 5887 5885 5882
5855 5857 5859 5863 5864 5865 5864 5867 5870 5871 5871 5871 5873 5877 5879 5883 5887 5891 5892 5893 5896 5896 5898 5901 5902 5902 5902 5901 5900 5899 5899 5898 5897 5897 5896 5896 5895 5894 5893 5893 5892 5891 5889 5888 5887 5885 5883 5880 5877
5848 5849 5852 5856 5858 5859 5860 5861 5865 5867 5867 5867 5866 5869 5873 5877 5879 5884 5884 5885 5889 5890 5891 5893 5895 5897 5897 5894 5892 5891 5891 5890 5890 5891 5890 5891 5891 5890 5890 5889 5887 5885 5884 5882 5881 5880 5878 5875 5873
5841 5845 5849 5851 5852 5855 5856 5856 5856 5860 5860 5861 5862 5863 5867 5871 5873 5877 5878 5878 5880 5884 5887 5888 5891 5893 5892 5888 5885 5884 5885 5884 5883 5882 5883 5884 5883 5883 5884 5884 5883 5880 5877 5876 5875 5874 5873 5870 5868
5837 5840 5843 5845 5846 5848 5850 5851 5849 5850 5852 5853 5853 5856 5860 5864 5865 5870 5872 5871 5874 5877 5878 5882 5886 5888 5885 5880 5876 5875 5877 5876 5875 5876 5877 5877 5877 5877 5877 5876 5876 5874 5872 5872 5871 5869 5867 5865 5864
5829 5832 5836 5837 5839 5840 5842 5845 5845 5844 5845 5846 5847 5848 5851 5855 5857 5859 5861 5863 5865 5868 5866 5866 5871 5875 5871 5870 5868 5866 5866 5868 5869 5869 5868 5869 5870 5871 5871 5871 5869 5867 5865 5866 5867 5866 5863 5860 5859
5822 5824 5828 5830 5832 5833 5835 5837 5839 5839 5839 5839 5839 5838 5841 5843 5846 5846 5849 5851 5854 5854 5852 5853 5857 5858 5857 5861 5858 5858 5857 5859 5862 5862 5863 5864 5863 5863 5864 5863 5862 5860 5859 5860 5861 5861 5858 5856 5853
5815 5817 5819 5822 5824 5825 5826 5828 5832 5832 5832 5831 5831 5832 5834 5835 5835 5833 5835 5838 5839 5839 5840 5842 5841 5841 5843 5847 5848 5850 5852 5853 5856 5856 5857 5857 5857 5856 5856 5855 5855 5853 5854 5854 5854 5855 5854 5852 5849
5809 5810 5812 5815 5816 5816 5819 5819 5818 5821 5824 5826 5825 5824 5828 5828 5825 5824 5825 5827 5828 5829 5829 5830 5828 5825 5826 5833 5839 5842 5844 5845 5848 5849 5848 5848 5848 5848 5847 5847 5847 5846 5846 5847 5847 5847 5847 5846 5844
5802 5804 5806 5808 5809 5811 5814 5811 5808 5810 5814 5816 5815 5815 5818 5820 5819 5818 5815 5817 5820 5821 5817 5822 5821 5818 5819 5825 5830 5834 5835 5838 5840 5840 5840 5839 5840 5839 5838 5838 5839 5839 5838 5839 5840 5840 5840 5840 5840
5797 5798 5801 5802 5803 5805 5805 5803 5804 5803 5804 5805 5805 5807 5809 5810 5810 5811 5809 5807 5807 5809 5812 5816 5820 5817 5817 5819 5822 5826 5829 5829 5828 5829 5830 5830 5830 5830 5830 5830 5831 5831 5831 5830 5831 5832 5833 5834 5835
5791 5792 5793 5794 5795 5798 5798 5797 5797 5796 5796 5796 5797 5798 5801 5800 5801 5805 5805 5802 5801 5801 5802 5808 5808 5809 5809 5810 5812 5814 5817 5819 5820 5819 5820 5820 5820 5821 5822 5822 5822 5821 5821 5821 5823 5825 5826 5828 5829
5787 5786 5787 5788 5788 5790 5791 5792 5791 5790 5791 5791 5790 5790 5792 5794 5793 5795 5795 5794 5797 5799 5797 5798 5800 5802 5803 5804 5806 5807 5809 5811 5811 5811 5812 5811 5811 5811 5811 5813 5813 5813 5813 5813 5815 5817 5819 5821 5822
5780 5781 5782 5782 5782 5783 5784 5787 5784 5783 5782 5783 5785 5787 5790 5792 5790 5786 5784 5785 5790 5793 5793 5795 5796 5796 5796 5798 5799 5800 5801 5802 5803 5803 5803 5804 5804 5803 5802 5802 5803 5804 5804 5804 5806 5808 5811 5814 5815
5774 5774 5776 5776 5776 5776 5776 5780 5777 5779 5777 5777 5779 5782 5786 5788 5789 5787 5784 5784 5785 5787 5788 5789 5789 5788 5787 5789 5791 5793 5794 5795 5795 5795 5795 5795 5796 5795 5794 5793 5794 5795 5796 5796 5797 5799 5802 5805 5807